#datetime,building,power
2022-11-14T00:00:00,rvs,39.67
2022-11-14T00:01:00,rvs,41.69
2022-11-14T00:02:00,rvs,40.19
2022-11-14T00:03:00,rvs,36.59
2022-11-14T00:04:00,rvs,43.97
2022-11-14T00:05:00,rvs,50.24
2022-11-14T00:06:00,rvs,50.36
2022-11-14T00:07:00,rvs,57.97
2022-11-14T00:08:00,rvs,53.49
2022-11-14T00:09:00,rvs,57.34
2022-11-14T00:10:00,rvs,50.93
2022-11-14T00:11:00,rvs,48.14
2022-11-14T00:12:00,rvs,48.44
2022-11-14T00:13:00,rvs,55.44
2022-11-14T00:14:00,rvs,55.23
2022-11-14T00:15:00,rvs,55.38
2022-11-14T00:16:00,rvs,45.92
2022-11-14T00:17:00,rvs,42.81
2022-11-14T00:18:00,rvs,44.82
2022-11-14T00:19:00,rvs,58.80
2022-11-14T00:20:00,rvs,33.82
2022-11-14T00:21:00,rvs,31.99
2022-11-14T00:22:00,rvs,54.33
2022-11-14T00:23:00,rvs,31.32
2022-11-14T00:24:00,rvs,32.51
2022-11-14T00:25:00,rvs,36.34
2022-11-14T00:26:00,rvs,43.94
2022-11-14T00:27:00,rvs,39.71
2022-11-14T00:28:00,rvs,44.86
2022-11-14T00:29:00,rvs,42.11
2022-11-14T00:30:00,rvs,39.06
2022-11-14T00:31:00,rvs,37.44
2022-11-14T00:32:00,rvs,28.47
2022-11-14T00:33:00,rvs,31.98
2022-11-14T00:34:00,rvs,39.46
2022-11-14T00:35:00,rvs,39.37
2022-11-14T00:36:00,rvs,35.05
2022-11-14T00:37:00,rvs,38.92
2022-11-14T00:38:00,rvs,38.66
2022-11-14T00:39:00,rvs,38.87
2022-11-14T00:40:00,rvs,39.27
2022-11-14T00:41:00,rvs,34.39
2022-11-14T00:42:00,rvs,30.03
2022-11-14T00:43:00,rvs,13.87
2022-11-14T00:44:00,rvs,17.85
2022-11-14T00:45:00,rvs,17.77
2022-11-14T00:46:00,rvs,13.76
2022-11-14T00:47:00,rvs,20.44
2022-11-14T00:48:00,rvs,21.85
2022-11-14T00:49:00,rvs,22.03
2022-11-14T00:50:00,rvs,31.03
2022-11-14T00:51:00,rvs,35.92
2022-11-14T00:52:00,rvs,36.51
2022-11-14T00:53:00,rvs,47.54
2022-11-14T00:54:00,rvs,35.02
2022-11-14T00:55:00,rvs,43.81
2022-11-14T00:56:00,rvs,46.58
2022-11-14T00:57:00,rvs,46.96
2022-11-14T00:58:00,rvs,46.04
2022-11-14T00:59:00,rvs,33.77
2022-11-14T01:00:00,rvs,35.11
2022-11-14T01:01:00,rvs,50.01
2022-11-14T01:02:00,rvs,51.94
2022-11-14T01:03:00,rvs,54.44
2022-11-14T01:04:00,rvs,47.70
2022-11-14T01:05:00,rvs,33.71
2022-11-14T01:06:00,rvs,37.86
2022-11-14T01:07:00,rvs,56.62
2022-11-14T01:08:00,rvs,51.79
2022-11-14T01:09:00,rvs,73.52
2022-11-14T01:10:00,rvs,80.33
2022-11-14T01:11:00,rvs,59.20
2022-11-14T01:12:00,rvs,58.62
2022-11-14T01:13:00,rvs,42.50
2022-11-14T01:14:00,rvs,42.48
2022-11-14T01:15:00,rvs,32.17
2022-11-14T01:16:00,rvs,37.83
2022-11-14T01:17:00,rvs,36.38
2022-11-14T01:18:00,rvs,42.08
2022-11-14T01:19:00,rvs,44.84
2022-11-14T01:20:00,rvs,38.84
2022-11-14T01:21:00,rvs,43.80
2022-11-14T01:22:00,rvs,37.09
2022-11-14T01:23:00,rvs,44.62
2022-11-14T01:24:00,rvs,33.45
2022-11-14T01:25:00,rvs,37.25
2022-11-14T01:26:00,rvs,45.43
2022-11-14T01:27:00,rvs,39.52
2022-11-14T01:28:00,rvs,39.64
2022-11-14T01:29:00,rvs,44.33
2022-11-14T01:30:00,rvs,47.56
2022-11-14T01:31:00,rvs,40.68
2022-11-14T01:32:00,rvs,39.50
2022-11-14T01:33:00,rvs,38.82
2022-11-14T01:34:00,rvs,38.57
2022-11-14T01:35:00,rvs,32.78
2022-11-14T01:36:00,rvs,27.66
2022-11-14T01:37:00,rvs,27.61
2022-11-14T01:38:00,rvs,26.20
2022-11-14T01:39:00,rvs,29.55
2022-11-14T01:40:00,rvs,28.35
2022-11-14T01:41:00,rvs,33.40
2022-11-14T01:42:00,rvs,36.63
2022-11-14T01:43:00,rvs,28.04
2022-11-14T01:44:00,rvs,29.35
2022-11-14T01:45:00,rvs,26.60
2022-11-14T01:46:00,rvs,37.95
2022-11-14T01:47:00,rvs,33.57
2022-11-14T01:48:00,rvs,37.96
2022-11-14T01:49:00,rvs,37.22
2022-11-14T01:50:00,rvs,38.04
2022-11-14T01:51:00,rvs,37.40
2022-11-14T01:52:00,rvs,38.32
2022-11-14T01:53:00,rvs,29.97
2022-11-14T01:54:00,rvs,30.99
2022-11-14T01:55:00,rvs,31.75
2022-11-14T01:56:00,rvs,32.73
2022-11-14T01:57:00,rvs,33.35
2022-11-14T01:58:00,rvs,34.36
2022-11-14T01:59:00,rvs,26.41
2022-11-14T02:00:00,rvs,24.23
2022-11-14T02:01:00,rvs,23.44
2022-11-14T02:02:00,rvs,25.84
2022-11-14T02:03:00,rvs,17.15
2022-11-14T02:04:00,rvs,17.02
2022-11-14T02:05:00,rvs,16.28
2022-11-14T02:06:00,rvs,17.14
2022-11-14T02:07:00,rvs,18.48
2022-11-14T02:08:00,rvs,18.05
2022-11-14T02:09:00,rvs,24.64
2022-11-14T02:10:00,rvs,33.33
2022-11-14T02:11:00,rvs,33.96
2022-11-14T02:12:00,rvs,18.07
2022-11-14T02:13:00,rvs,23.41
2022-11-14T02:14:00,rvs,21.00
2022-11-14T02:15:00,rvs,22.19
2022-11-14T02:16:00,rvs,25.59
2022-11-14T02:17:00,rvs,27.80
2022-11-14T02:18:00,rvs,27.34
2022-11-14T02:19:00,rvs,22.57
2022-11-14T02:20:00,rvs,26.27
2022-11-14T02:21:00,rvs,27.27
2022-11-14T02:22:00,rvs,27.25
2022-11-14T02:23:00,rvs,28.91
2022-11-14T02:24:00,rvs,22.29
2022-11-14T02:25:00,rvs,23.84
2022-11-14T02:26:00,rvs,25.54
2022-11-14T02:27:00,rvs,34.47
2022-11-14T02:28:00,rvs,27.91
2022-11-14T02:29:00,rvs,36.27
2022-11-14T02:30:00,rvs,28.04
2022-11-14T02:31:00,rvs,28.73
2022-11-14T02:32:00,rvs,28.45
2022-11-14T02:33:00,rvs,28.86
2022-11-14T02:34:00,rvs,24.73
2022-11-14T02:35:00,rvs,35.36
2022-11-14T02:36:00,rvs,23.15
2022-11-14T02:37:00,rvs,23.43
2022-11-14T02:38:00,rvs,24.90
2022-11-14T02:39:00,rvs,25.10
2022-11-14T02:40:00,rvs,25.72
2022-11-14T02:41:00,rvs,27.02
2022-11-14T02:42:00,rvs,36.07
2022-11-14T02:43:00,rvs,35.44
2022-11-14T02:44:00,rvs,45.76
2022-11-14T02:45:00,rvs,50.71
2022-11-14T02:46:00,rvs,68.08
2022-11-14T02:47:00,rvs,71.25
2022-11-14T02:48:00,rvs,66.72
2022-11-14T02:49:00,rvs,43.78
2022-11-14T02:50:00,rvs,45.95
2022-11-14T02:51:00,rvs,41.13
2022-11-14T02:52:00,rvs,29.20
2022-11-14T02:53:00,rvs,26.96
2022-11-14T02:54:00,rvs,20.50
2022-11-14T02:55:00,rvs,20.91
2022-11-14T02:56:00,rvs,19.09
2022-11-14T02:57:00,rvs,22.40
2022-11-14T02:58:00,rvs,28.44
2022-11-14T02:59:00,rvs,29.68
2022-11-14T03:00:00,rvs,37.87
2022-11-14T03:01:00,rvs,51.18
2022-11-14T03:02:00,rvs,55.66
2022-11-14T03:03:00,rvs,55.35
2022-11-14T03:04:00,rvs,40.59
2022-11-14T03:05:00,rvs,17.91
2022-11-14T03:06:00,rvs,19.46
2022-11-14T03:07:00,rvs,17.98
2022-11-14T03:08:00,rvs,16.08
2022-11-14T03:09:00,rvs,18.89
2022-11-14T03:10:00,rvs,22.26
2022-11-14T03:11:00,rvs,26.60
2022-11-14T03:12:00,rvs,23.31
2022-11-14T03:13:00,rvs,23.49
2022-11-14T03:14:00,rvs,33.62
2022-11-14T03:15:00,rvs,27.93
2022-11-14T03:16:00,rvs,36.19
2022-11-14T03:17:00,rvs,32.60
2022-11-14T03:18:00,rvs,37.34
2022-11-14T03:19:00,rvs,42.13
2022-11-14T03:20:00,rvs,40.30
2022-11-14T03:21:00,rvs,46.91
2022-11-14T03:22:00,rvs,45.03
2022-11-14T03:23:00,rvs,43.85
2022-11-14T03:24:00,rvs,48.06
2022-11-14T03:25:00,rvs,49.07
2022-11-14T03:26:00,rvs,48.72
2022-11-14T03:27:00,rvs,49.13
2022-11-14T03:28:00,rvs,43.53
2022-11-14T03:29:00,rvs,40.62
2022-11-14T03:30:00,rvs,35.20
2022-11-14T03:31:00,rvs,36.09
2022-11-14T03:32:00,rvs,37.35
2022-11-14T03:33:00,rvs,39.34
2022-11-14T03:34:00,rvs,40.45
2022-11-14T03:35:00,rvs,33.19
2022-11-14T03:36:00,rvs,33.12
2022-11-14T03:37:00,rvs,34.38
2022-11-14T03:38:00,rvs,32.55
2022-11-14T03:39:00,rvs,47.11
2022-11-14T03:40:00,rvs,32.76
2022-11-14T03:41:00,rvs,31.98
2022-11-14T03:42:00,rvs,30.57
2022-11-14T03:43:00,rvs,28.61
2022-11-14T03:44:00,rvs,31.00
2022-11-14T03:45:00,rvs,32.05
2022-11-14T03:46:00,rvs,33.78
2022-11-14T03:47:00,rvs,38.62
2022-11-14T03:48:00,rvs,49.02
2022-11-14T03:49:00,rvs,39.81
2022-11-14T03:50:00,rvs,34.93
2022-11-14T03:51:00,rvs,31.24
2022-11-14T03:52:00,rvs,31.31
2022-11-14T03:53:00,rvs,29.43
2022-11-14T03:54:00,rvs,31.77
2022-11-14T03:55:00,rvs,33.41
2022-11-14T03:56:00,rvs,26.14
2022-11-14T03:57:00,rvs,25.68
2022-11-14T03:58:00,rvs,21.59
2022-11-14T03:59:00,rvs,25.14
2022-11-14T04:00:00,rvs,24.94
2022-11-14T04:01:00,rvs,25.06
2022-11-14T04:02:00,rvs,27.54
2022-11-14T04:03:00,rvs,30.76
2022-11-14T04:04:00,rvs,42.08
2022-11-14T04:05:00,rvs,44.65
2022-11-14T04:06:00,rvs,54.34
2022-11-14T04:07:00,rvs,45.44
2022-11-14T04:08:00,rvs,45.25
2022-11-14T04:09:00,rvs,44.05
2022-11-14T04:10:00,rvs,30.89
2022-11-14T04:11:00,rvs,34.35
2022-11-14T04:12:00,rvs,19.77
2022-11-14T04:13:00,rvs,11.37
2022-11-14T04:14:00,rvs,16.30
2022-11-14T04:15:00,rvs,18.37
2022-11-14T04:16:00,rvs,19.61
2022-11-14T04:17:00,rvs,21.17
2022-11-14T04:18:00,rvs,27.94
2022-11-14T04:19:00,rvs,34.48
2022-11-14T04:20:00,rvs,44.49
2022-11-14T04:21:00,rvs,39.71
2022-11-14T04:22:00,rvs,49.40
2022-11-14T04:23:00,rvs,43.48
2022-11-14T04:24:00,rvs,41.02
2022-11-14T04:25:00,rvs,48.07
2022-11-14T04:26:00,rvs,60.52
2022-11-14T04:27:00,rvs,52.95
2022-11-14T04:28:00,rvs,46.59
2022-11-14T04:29:00,rvs,47.47
2022-11-14T04:30:00,rvs,24.85
2022-11-14T04:31:00,rvs,26.43
2022-11-14T04:32:00,rvs,26.49
2022-11-14T04:33:00,rvs,28.98
2022-11-14T04:34:00,rvs,35.26
2022-11-14T04:35:00,rvs,35.85
2022-11-14T04:36:00,rvs,55.22
2022-11-14T04:37:00,rvs,58.22
2022-11-14T04:38:00,rvs,72.87
2022-11-14T04:39:00,rvs,86.04
2022-11-14T04:40:00,rvs,67.54
2022-11-14T04:41:00,rvs,71.35
2022-11-14T04:42:00,rvs,77.53
2022-11-14T04:43:00,rvs,73.88
2022-11-14T04:44:00,rvs,82.86
2022-11-14T04:45:00,rvs,55.20
2022-11-14T04:46:00,rvs,42.70
2022-11-14T04:47:00,rvs,44.76
2022-11-14T04:48:00,rvs,19.76
2022-11-14T04:49:00,rvs,21.52
2022-11-14T04:50:00,rvs,23.15
2022-11-14T04:51:00,rvs,25.62
2022-11-14T04:52:00,rvs,35.12
2022-11-14T04:53:00,rvs,23.59
2022-11-14T04:54:00,rvs,27.39
2022-11-14T04:55:00,rvs,37.55
2022-11-14T04:56:00,rvs,26.72
2022-11-14T04:57:00,rvs,27.99
2022-11-14T04:58:00,rvs,30.10
2022-11-14T04:59:00,rvs,32.51
2022-11-14T05:00:00,rvs,34.58
2022-11-14T05:01:00,rvs,27.64
2022-11-14T05:02:00,rvs,27.55
2022-11-14T05:03:00,rvs,28.20
2022-11-14T05:04:00,rvs,28.29
2022-11-14T05:05:00,rvs,29.14
2022-11-14T05:06:00,rvs,28.84
2022-11-14T05:07:00,rvs,28.67
2022-11-14T05:08:00,rvs,29.37
2022-11-14T05:09:00,rvs,29.58
2022-11-14T05:10:00,rvs,29.45
2022-11-14T05:11:00,rvs,20.07
2022-11-14T05:12:00,rvs,19.14
2022-11-14T05:13:00,rvs,25.02
2022-11-14T05:14:00,rvs,31.21
2022-11-14T05:15:00,rvs,21.25
2022-11-14T05:16:00,rvs,24.22
2022-11-14T05:17:00,rvs,24.06
2022-11-14T05:18:00,rvs,28.69
2022-11-14T05:19:00,rvs,31.97
2022-11-14T05:20:00,rvs,32.94
2022-11-14T05:21:00,rvs,33.52
2022-11-14T05:22:00,rvs,44.87
2022-11-14T05:23:00,rvs,25.86
2022-11-14T05:24:00,rvs,30.68
2022-11-14T05:25:00,rvs,24.93
2022-11-14T05:26:00,rvs,33.80
2022-11-14T05:27:00,rvs,30.36
2022-11-14T05:28:00,rvs,28.42
2022-11-14T05:29:00,rvs,28.03
2022-11-14T05:30:00,rvs,35.77
2022-11-14T05:31:00,rvs,21.88
2022-11-14T05:32:00,rvs,22.33
2022-11-14T05:33:00,rvs,24.83
2022-11-14T05:34:00,rvs,24.69
2022-11-14T05:35:00,rvs,24.36
2022-11-14T05:36:00,rvs,25.18
2022-11-14T05:37:00,rvs,29.35
2022-11-14T05:38:00,rvs,33.76
2022-11-14T05:39:00,rvs,34.06
2022-11-14T05:40:00,rvs,43.82
2022-11-14T05:41:00,rvs,36.85
2022-11-14T05:42:00,rvs,40.86
2022-11-14T05:43:00,rvs,30.89
2022-11-14T05:44:00,rvs,30.57
2022-11-14T05:45:00,rvs,41.11
2022-11-14T05:46:00,rvs,38.95
2022-11-14T05:47:00,rvs,34.05
2022-11-14T05:48:00,rvs,19.04
2022-11-14T05:49:00,rvs,19.43
2022-11-14T05:50:00,rvs,24.78
2022-11-14T05:51:00,rvs,20.24
2022-11-14T05:52:00,rvs,28.56
2022-11-14T05:53:00,rvs,21.60
2022-11-14T05:54:00,rvs,22.60
2022-11-14T05:55:00,rvs,23.74
2022-11-14T05:56:00,rvs,52.07
2022-11-14T05:57:00,rvs,46.93
2022-11-14T05:58:00,rvs,62.77
2022-11-14T05:59:00,rvs,51.04
2022-11-14T06:00:00,rvs,28.07
2022-11-14T06:01:00,rvs,30.07
2022-11-14T06:02:00,rvs,30.50
2022-11-14T06:03:00,rvs,37.64
2022-11-14T06:04:00,rvs,33.55
2022-11-14T06:05:00,rvs,31.09
2022-11-14T06:06:00,rvs,33.73
2022-11-14T06:07:00,rvs,40.08
2022-11-14T06:08:00,rvs,44.01
2022-11-14T06:09:00,rvs,44.27
2022-11-14T06:10:00,rvs,40.68
2022-11-14T06:11:00,rvs,40.88
2022-11-14T06:12:00,rvs,47.46
2022-11-14T06:13:00,rvs,42.90
2022-11-14T06:14:00,rvs,40.58
2022-11-14T06:15:00,rvs,45.06
2022-11-14T06:16:00,rvs,37.16
2022-11-14T06:17:00,rvs,40.49
2022-11-14T06:18:00,rvs,40.30
2022-11-14T06:19:00,rvs,38.51
2022-11-14T06:20:00,rvs,31.95
2022-11-14T06:21:00,rvs,32.90
2022-11-14T06:22:00,rvs,32.69
2022-11-14T06:23:00,rvs,37.05
2022-11-14T06:24:00,rvs,38.05
2022-11-14T06:25:00,rvs,37.22
2022-11-14T06:26:00,rvs,52.33
2022-11-14T06:27:00,rvs,51.11
2022-11-14T06:28:00,rvs,52.12
2022-11-14T06:29:00,rvs,67.97
2022-11-14T06:30:00,rvs,43.56
2022-11-14T06:31:00,rvs,52.05
2022-11-14T06:32:00,rvs,50.20
2022-11-14T06:33:00,rvs,23.80
2022-11-14T06:34:00,rvs,23.78
2022-11-14T06:35:00,rvs,28.51
2022-11-14T06:36:00,rvs,28.56
2022-11-14T06:37:00,rvs,24.62
2022-11-14T06:38:00,rvs,22.49
2022-11-14T06:39:00,rvs,24.84
2022-11-14T06:40:00,rvs,28.22
2022-11-14T06:41:00,rvs,29.50
2022-11-14T06:42:00,rvs,32.61
2022-11-14T06:43:00,rvs,34.31
2022-11-14T06:44:00,rvs,36.44
2022-11-14T06:45:00,rvs,43.17
2022-11-14T06:46:00,rvs,44.66
2022-11-14T06:47:00,rvs,38.40
2022-11-14T06:48:00,rvs,46.78
2022-11-14T06:49:00,rvs,29.99
2022-11-14T06:50:00,rvs,44.13
2022-11-14T06:51:00,rvs,42.72
2022-11-14T06:52:00,rvs,33.04
2022-11-14T06:53:00,rvs,48.58
2022-11-14T06:54:00,rvs,52.66
2022-11-14T06:55:00,rvs,39.85
2022-11-14T06:56:00,rvs,36.57
2022-11-14T06:57:00,rvs,38.09
2022-11-14T06:58:00,rvs,43.56
2022-11-14T06:59:00,rvs,39.34
2022-11-14T07:00:00,rvs,43.22
2022-11-14T07:01:00,rvs,38.19
2022-11-14T07:02:00,rvs,39.66
2022-11-14T07:03:00,rvs,49.34
2022-11-14T07:04:00,rvs,48.61
2022-11-14T07:05:00,rvs,49.89
2022-11-14T07:06:00,rvs,42.35
2022-11-14T07:07:00,rvs,51.25
2022-11-14T07:08:00,rvs,46.08
2022-11-14T07:09:00,rvs,46.78
2022-11-14T07:10:00,rvs,51.33
2022-11-14T07:11:00,rvs,35.37
2022-11-14T07:12:00,rvs,38.76
2022-11-14T07:13:00,rvs,34.91
2022-11-14T07:14:00,rvs,36.05
2022-11-14T07:15:00,rvs,44.27
2022-11-14T07:16:00,rvs,53.70
2022-11-14T07:17:00,rvs,47.92
2022-11-14T07:18:00,rvs,55.15
2022-11-14T07:19:00,rvs,70.89
2022-11-14T07:20:00,rvs,63.25
2022-11-14T07:21:00,rvs,57.46
2022-11-14T07:22:00,rvs,34.50
2022-11-14T07:23:00,rvs,25.77
2022-11-14T07:24:00,rvs,24.46
2022-11-14T07:25:00,rvs,23.47
2022-11-14T07:26:00,rvs,25.70
2022-11-14T07:27:00,rvs,24.52
2022-11-14T07:28:00,rvs,25.99
2022-11-14T07:29:00,rvs,35.25
2022-11-14T07:30:00,rvs,37.52
2022-11-14T07:31:00,rvs,46.57
2022-11-14T07:32:00,rvs,54.58
2022-11-14T07:33:00,rvs,74.52
2022-11-14T07:34:00,rvs,81.30
2022-11-14T07:35:00,rvs,79.36
2022-11-14T07:36:00,rvs,48.31
2022-11-14T07:37:00,rvs,43.65
2022-11-14T07:38:00,rvs,42.57
2022-11-14T07:39:00,rvs,39.49
2022-11-14T07:40:00,rvs,39.44
2022-11-14T07:41:00,rvs,37.37
2022-11-14T07:42:00,rvs,37.67
2022-11-14T07:43:00,rvs,36.27
2022-11-14T07:44:00,rvs,39.79
2022-11-14T07:45:00,rvs,32.94
2022-11-14T07:46:00,rvs,38.17
2022-11-14T07:47:00,rvs,41.22
2022-11-14T07:48:00,rvs,49.98
2022-11-14T07:49:00,rvs,56.16
2022-11-14T07:50:00,rvs,63.05
2022-11-14T07:51:00,rvs,63.16
2022-11-14T07:52:00,rvs,64.11
2022-11-14T07:53:00,rvs,63.62
2022-11-14T07:54:00,rvs,61.73
2022-11-14T07:55:00,rvs,54.71
2022-11-14T07:56:00,rvs,24.50
2022-11-14T07:57:00,rvs,24.10
2022-11-14T07:58:00,rvs,24.87
2022-11-14T07:59:00,rvs,25.09
2022-11-14T08:00:00,rvs,26.16
2022-11-14T08:01:00,rvs,29.57
2022-11-14T08:02:00,rvs,38.17
2022-11-14T08:03:00,rvs,32.43
2022-11-14T08:04:00,rvs,40.31
2022-11-14T08:05:00,rvs,36.84
2022-11-14T08:06:00,rvs,39.31
2022-11-14T08:07:00,rvs,42.53
2022-11-14T08:08:00,rvs,42.97
2022-11-14T08:09:00,rvs,41.85
2022-11-14T08:10:00,rvs,47.60
2022-11-14T08:11:00,rvs,51.44
2022-11-14T08:12:00,rvs,48.99
2022-11-14T08:13:00,rvs,52.82
2022-11-14T08:14:00,rvs,47.16
2022-11-14T08:15:00,rvs,36.80
2022-11-14T08:16:00,rvs,36.60
2022-11-14T08:17:00,rvs,36.53
2022-11-14T08:18:00,rvs,36.36
2022-11-14T08:19:00,rvs,37.90
2022-11-14T08:20:00,rvs,37.70
2022-11-14T08:21:00,rvs,42.05
2022-11-14T08:22:00,rvs,35.11
2022-11-14T08:23:00,rvs,38.06
2022-11-14T08:24:00,rvs,36.88
2022-11-14T08:25:00,rvs,37.42
2022-11-14T08:26:00,rvs,39.95
2022-11-14T08:27:00,rvs,34.84
2022-11-14T08:28:00,rvs,36.66
2022-11-14T08:29:00,rvs,32.14
2022-11-14T08:30:00,rvs,38.42
2022-11-14T08:31:00,rvs,43.36
2022-11-14T08:32:00,rvs,43.24
2022-11-14T08:33:00,rvs,46.16
2022-11-14T08:34:00,rvs,50.79
2022-11-14T08:35:00,rvs,59.72
2022-11-14T08:36:00,rvs,48.34
2022-11-14T08:37:00,rvs,50.01
2022-11-14T08:38:00,rvs,34.02
2022-11-14T08:39:00,rvs,29.74
2022-11-14T08:40:00,rvs,29.61
2022-11-14T08:41:00,rvs,30.14
2022-11-14T08:42:00,rvs,30.83
2022-11-14T08:43:00,rvs,23.39
2022-11-14T08:44:00,rvs,21.90
2022-11-14T08:45:00,rvs,21.18
2022-11-14T08:46:00,rvs,8.94
2022-11-14T08:47:00,rvs,8.75
2022-11-14T08:48:00,rvs,9.02
2022-11-14T08:49:00,rvs,12.15
2022-11-14T08:50:00,rvs,16.60
2022-11-14T08:51:00,rvs,17.30
2022-11-14T08:52:00,rvs,21.97
2022-11-14T08:53:00,rvs,20.43
2022-11-14T08:54:00,rvs,23.95
2022-11-14T08:55:00,rvs,27.93
2022-11-14T08:56:00,rvs,31.44
2022-11-14T08:57:00,rvs,35.75
2022-11-14T08:58:00,rvs,38.75
2022-11-14T08:59:00,rvs,35.65
2022-11-14T09:00:00,rvs,38.06
2022-11-14T09:01:00,rvs,40.82
2022-11-14T09:02:00,rvs,39.28
2022-11-14T09:03:00,rvs,38.75
2022-11-14T09:04:00,rvs,34.66
2022-11-14T09:05:00,rvs,40.00
2022-11-14T09:06:00,rvs,46.51
2022-11-14T09:07:00,rvs,45.31
2022-11-14T09:08:00,rvs,41.95
2022-11-14T09:09:00,rvs,47.32
2022-11-14T09:10:00,rvs,45.90
2022-11-14T09:11:00,rvs,39.32
2022-11-14T09:12:00,rvs,35.17
2022-11-14T09:13:00,rvs,36.11
2022-11-14T09:14:00,rvs,37.13
2022-11-14T09:15:00,rvs,33.33
2022-11-14T09:16:00,rvs,28.18
2022-11-14T09:17:00,rvs,28.05
2022-11-14T09:18:00,rvs,21.08
2022-11-14T09:19:00,rvs,30.27
2022-11-14T09:20:00,rvs,30.39
2022-11-14T09:21:00,rvs,39.53
2022-11-14T09:22:00,rvs,36.71
2022-11-14T09:23:00,rvs,49.48
2022-11-14T09:24:00,rvs,46.13
2022-11-14T09:25:00,rvs,50.25
2022-11-14T09:26:00,rvs,53.60
2022-11-14T09:27:00,rvs,55.36
2022-11-14T09:28:00,rvs,45.77
2022-11-14T09:29:00,rvs,48.77
2022-11-14T09:30:00,rvs,46.05
2022-11-14T09:31:00,rvs,38.98
2022-11-14T09:32:00,rvs,46.06
2022-11-14T09:33:00,rvs,45.63
2022-11-14T09:34:00,rvs,43.85
2022-11-14T09:35:00,rvs,31.33
2022-11-14T09:36:00,rvs,33.78
2022-11-14T09:37:00,rvs,36.52
2022-11-14T09:38:00,rvs,36.76
2022-11-14T09:39:00,rvs,51.10
2022-11-14T09:40:00,rvs,44.15
2022-11-14T09:41:00,rvs,40.28
2022-11-14T09:42:00,rvs,46.92
2022-11-14T09:43:00,rvs,56.82
2022-11-14T09:44:00,rvs,48.18
2022-11-14T09:45:00,rvs,78.79
2022-11-14T09:46:00,rvs,82.42
2022-11-14T09:47:00,rvs,77.91
2022-11-14T09:48:00,rvs,78.10
2022-11-14T09:49:00,rvs,40.93
2022-11-14T09:50:00,rvs,43.35
2022-11-14T09:51:00,rvs,43.07
2022-11-14T09:52:00,rvs,43.95
2022-11-14T09:53:00,rvs,47.84
2022-11-14T09:54:00,rvs,48.77
2022-11-14T09:55:00,rvs,51.47
2022-11-14T09:56:00,rvs,62.54
2022-11-14T09:57:00,rvs,63.19
2022-11-14T09:58:00,rvs,47.69
2022-11-14T09:59:00,rvs,42.56
2022-11-14T10:00:00,rvs,40.03
2022-11-14T10:01:00,rvs,52.15
2022-11-14T10:02:00,rvs,58.70
2022-11-14T10:03:00,rvs,63.71
2022-11-14T10:04:00,rvs,44.40
2022-11-14T10:05:00,rvs,47.65
2022-11-14T10:06:00,rvs,40.82
2022-11-14T10:07:00,rvs,45.68
2022-11-14T10:08:00,rvs,54.60
2022-11-14T10:09:00,rvs,53.43
2022-11-14T10:10:00,rvs,55.90
2022-11-14T10:11:00,rvs,45.32
2022-11-14T10:12:00,rvs,49.94
2022-11-14T10:13:00,rvs,52.64
2022-11-14T10:14:00,rvs,74.09
2022-11-14T10:15:00,rvs,60.49
2022-11-14T10:16:00,rvs,62.08
2022-11-14T10:17:00,rvs,58.43
2022-11-14T10:18:00,rvs,55.25
2022-11-14T10:19:00,rvs,45.47
2022-11-14T10:20:00,rvs,39.63
2022-11-14T10:21:00,rvs,29.61
2022-11-14T10:22:00,rvs,28.20
2022-11-14T10:23:00,rvs,25.17
2022-11-14T10:24:00,rvs,29.81
2022-11-14T10:25:00,rvs,24.35
2022-11-14T10:26:00,rvs,32.66
2022-11-14T10:27:00,rvs,34.35
2022-11-14T10:28:00,rvs,38.31
2022-11-14T10:29:00,rvs,38.89
2022-11-14T10:30:00,rvs,39.14
2022-11-14T10:31:00,rvs,48.27
2022-11-14T10:32:00,rvs,42.73
2022-11-14T10:33:00,rvs,50.78
2022-11-14T10:34:00,rvs,45.91
2022-11-14T10:35:00,rvs,56.57
2022-11-14T10:36:00,rvs,55.14
2022-11-14T10:37:00,rvs,55.22
2022-11-14T10:38:00,rvs,57.17
2022-11-14T10:39:00,rvs,33.59
2022-11-14T10:40:00,rvs,37.93
2022-11-14T10:41:00,rvs,38.78
2022-11-14T10:42:00,rvs,39.72
2022-11-14T10:43:00,rvs,43.72
2022-11-14T10:44:00,rvs,45.08
2022-11-14T10:45:00,rvs,25.40
2022-11-14T10:46:00,rvs,41.13
2022-11-14T10:47:00,rvs,41.36
2022-11-14T10:48:00,rvs,43.39
2022-11-14T10:49:00,rvs,34.93
2022-11-14T10:50:00,rvs,33.73
2022-11-14T10:51:00,rvs,38.04
2022-11-14T10:52:00,rvs,32.32
2022-11-14T10:53:00,rvs,36.77
2022-11-14T10:54:00,rvs,35.03
2022-11-14T10:55:00,rvs,38.57
2022-11-14T10:56:00,rvs,38.42
2022-11-14T10:57:00,rvs,46.76
2022-11-14T10:58:00,rvs,51.88
2022-11-14T10:59:00,rvs,50.58
2022-11-14T11:00:00,rvs,50.38
2022-11-14T11:01:00,rvs,43.14
2022-11-14T11:02:00,rvs,46.81
2022-11-14T11:03:00,rvs,41.20
2022-11-14T11:04:00,rvs,51.86
2022-11-14T11:05:00,rvs,49.10
2022-11-14T11:06:00,rvs,54.19
2022-11-14T11:07:00,rvs,56.24
2022-11-14T11:08:00,rvs,59.41
2022-11-14T11:09:00,rvs,40.90
2022-11-14T11:10:00,rvs,38.94
2022-11-14T11:11:00,rvs,32.79
2022-11-14T11:12:00,rvs,33.83
2022-11-14T11:13:00,rvs,30.18
2022-11-14T11:14:00,rvs,38.52
2022-11-14T11:15:00,rvs,30.50
2022-11-14T11:16:00,rvs,35.35
2022-11-14T11:17:00,rvs,27.70
2022-11-14T11:18:00,rvs,27.49
2022-11-14T11:19:00,rvs,33.76
2022-11-14T11:20:00,rvs,21.91
2022-11-14T11:21:00,rvs,28.71
2022-11-14T11:22:00,rvs,21.48
2022-11-14T11:23:00,rvs,34.80
2022-11-14T11:24:00,rvs,40.03
2022-11-14T11:25:00,rvs,30.77
2022-11-14T11:26:00,rvs,32.91
2022-11-14T11:27:00,rvs,40.73
2022-11-14T11:28:00,rvs,44.64
2022-11-14T11:29:00,rvs,30.36
2022-11-14T11:30:00,rvs,22.36
2022-11-14T11:31:00,rvs,29.21
2022-11-14T11:32:00,rvs,36.52
2022-11-14T11:33:00,rvs,33.48
2022-11-14T11:34:00,rvs,22.35
2022-11-14T11:35:00,rvs,22.42
2022-11-14T11:36:00,rvs,22.69
2022-11-14T11:37:00,rvs,21.79
2022-11-14T11:38:00,rvs,23.31
2022-11-14T11:39:00,rvs,16.44
2022-11-14T11:40:00,rvs,9.17
2022-11-14T11:41:00,rvs,9.17
2022-11-14T11:42:00,rvs,8.78
2022-11-14T11:43:00,rvs,8.26
2022-11-14T11:44:00,rvs,8.32
2022-11-14T11:45:00,rvs,8.80
2022-11-14T11:46:00,rvs,12.11
2022-11-14T11:47:00,rvs,13.22
2022-11-14T11:48:00,rvs,21.42
2022-11-14T11:49:00,rvs,21.16
2022-11-14T11:50:00,rvs,15.65
2022-11-14T11:51:00,rvs,14.30
2022-11-14T11:52:00,rvs,14.12
2022-11-14T11:53:00,rvs,14.49
2022-11-14T11:54:00,rvs,15.37
2022-11-14T11:55:00,rvs,15.13
2022-11-14T11:56:00,rvs,15.20
2022-11-14T11:57:00,rvs,15.09
2022-11-14T11:58:00,rvs,15.21
2022-11-14T11:59:00,rvs,8.81
2022-11-14T12:00:00,rvs,8.76
2022-11-14T12:01:00,rvs,8.80
2022-11-14T12:02:00,rvs,8.58
2022-11-14T12:03:00,rvs,9.44
2022-11-14T12:04:00,rvs,19.26
2022-11-14T12:05:00,rvs,28.09
2022-11-14T12:06:00,rvs,27.37
2022-11-14T12:07:00,rvs,31.59
2022-11-14T12:08:00,rvs,38.12
2022-11-14T12:09:00,rvs,50.99
2022-11-14T12:10:00,rvs,49.59
2022-11-14T12:11:00,rvs,34.95
2022-11-14T12:12:00,rvs,32.14
2022-11-14T12:13:00,rvs,31.91
2022-11-14T12:14:00,rvs,33.01
2022-11-14T12:15:00,rvs,33.96
2022-11-14T12:16:00,rvs,24.80
2022-11-14T12:17:00,rvs,24.20
2022-11-14T12:18:00,rvs,26.55
2022-11-14T12:19:00,rvs,26.35
2022-11-14T12:20:00,rvs,24.05
2022-11-14T12:21:00,rvs,27.78
2022-11-14T12:22:00,rvs,25.83
2022-11-14T12:23:00,rvs,26.03
2022-11-14T12:24:00,rvs,27.82
2022-11-14T12:25:00,rvs,20.77
2022-11-14T12:26:00,rvs,22.11
2022-11-14T12:27:00,rvs,17.51
2022-11-14T12:28:00,rvs,16.82
2022-11-14T12:29:00,rvs,15.95
2022-11-14T12:30:00,rvs,9.14
2022-11-14T12:31:00,rvs,15.16
2022-11-14T12:32:00,rvs,17.00
2022-11-14T12:33:00,rvs,18.59
2022-11-14T12:34:00,rvs,21.68
2022-11-14T12:35:00,rvs,44.36
2022-11-14T12:36:00,rvs,27.01
2022-11-14T12:37:00,rvs,53.57
2022-11-14T12:38:00,rvs,37.43
2022-11-14T12:39:00,rvs,32.34
2022-11-14T12:40:00,rvs,37.31
2022-11-14T12:41:00,rvs,33.61
2022-11-14T12:42:00,rvs,48.36
2022-11-14T12:43:00,rvs,50.27
2022-11-14T12:44:00,rvs,44.62
2022-11-14T12:45:00,rvs,50.34
2022-11-14T12:46:00,rvs,55.33
2022-11-14T12:47:00,rvs,54.28
2022-11-14T12:48:00,rvs,75.42
2022-11-14T12:49:00,rvs,72.42
2022-11-14T12:50:00,rvs,62.95
2022-11-14T12:51:00,rvs,73.44
2022-11-14T12:52:00,rvs,53.02
2022-11-14T12:53:00,rvs,48.02
2022-11-14T12:54:00,rvs,50.59
2022-11-14T12:55:00,rvs,41.90
2022-11-14T12:56:00,rvs,45.80
2022-11-14T12:57:00,rvs,51.53
2022-11-14T12:58:00,rvs,53.99
2022-11-14T12:59:00,rvs,58.34
2022-11-14T13:00:00,rvs,58.16
2022-11-14T13:01:00,rvs,60.55
2022-11-14T13:02:00,rvs,62.11
2022-11-14T13:03:00,rvs,57.76
2022-11-14T13:04:00,rvs,58.60
2022-11-14T13:05:00,rvs,61.90
2022-11-14T13:06:00,rvs,70.80
2022-11-14T13:07:00,rvs,73.73
2022-11-14T13:08:00,rvs,73.22
2022-11-14T13:09:00,rvs,63.85
2022-11-14T13:10:00,rvs,63.35
2022-11-14T13:11:00,rvs,57.97
2022-11-14T13:12:00,rvs,69.34
2022-11-14T13:13:00,rvs,70.19
2022-11-14T13:14:00,rvs,71.68
2022-11-14T13:15:00,rvs,74.98
2022-11-14T13:16:00,rvs,65.83
2022-11-14T13:17:00,rvs,69.26
2022-11-14T13:18:00,rvs,52.95